User: anonymous   Login
Location: Unspecified
(0.0000°N, 0.0000°E)
Time: 15:17:58
(UTC+00:00)
Language:

USA 269 - Orbit

View from above orbital plane
View from above orbital plane
View from above satellite
View from above satellite

Ground track
Ground track

The orbit data is extracted from the following two-line orbital elements,

1 41724U 16047A   18281.89522597 0.00000000  00000-0  00000-0 0    06
2 41724   3.9088 329.7399 0004318 187.7804 172.2256  1.00270000    06
Epoch (UTC): 08 October 2018 21:29:07
Eccentricity: 0.0004318
inclination: 3.9088°
perigee height: 35768 km
apogee height: 35805 km
right ascension of ascending node: 329.7399°
argument of perigee: 187.7804°
revolutions per day: 1.00270000
mean anomaly at epoch: 172.2256°
orbit number at epoch: 0

The dashed part of the orbit path shows where the satellite is in the earth's shadow,  

DLR